Simultaneous Nadir Overpasses (SNOs) Predictions

Prediction of SNOs between AQUA and GOES-15 Satellite Orbit:

Table of predicted SNOs for the next 14.0 days since TLE Epoch: 12/18/2021
Index Date Time (AQUA) AQUA Lat,Lon GOES-15 Lat,Lon Distance(km) Time Diff (sec)
1 12/19/2021 22:04:46 0.14,-127.20 0.02,-127.81 69.11 80
2 12/21/2021 21:52:37 0.80,-124.25 0.02,-127.87 411.83 80
3 12/22/2021 10:13:53 0.29,-129.41 -0.03,-127.90 171.64 80
4 12/24/2021 10:01:44 -0.37,-126.46 -0.03,-127.96 170.59 80
5 12/24/2021 22:23:09 -0.72,-131.66 0.05,-127.96 420.21 80
6 12/26/2021 22:10:59 -0.10,-128.70 0.04,-128.01 78.27 80
7 12/28/2021 21:58:49 0.52,-125.75 0.04,-128.06 263.19 80
8 12/29/2021 10:20:05 0.57,-130.90 -0.05,-128.09 320.48 80
9 12/31/2021 10:07:55 -0.06,-127.95 -0.04,-128.13 20.25 6
